TimeCST,TemperatureF,Dew PointF,Humidity,Sea Level PressureIn,VisibilityMPH,Wind Direction,Wind SpeedMPH,Gust SpeedMPH,PrecipitationIn,Events,Conditions,WindDirDegrees,DateUTC
12:52 AM,34.0,30.9,89,30.36,10.0,SSE,4.6,-,N/A,,Clear,160,2013-11-08 06:52:00
1:52 AM,34.0,30.9,89,30.35,10.0,SSE,5.8,-,N/A,,Clear,160,2013-11-08 07:52:00
2:52 AM,34.0,30.9,89,30.34,10.0,SSE,5.8,-,N/A,,Clear,150,2013-11-08 08:52:00
3:52 AM,34.0,30.9,89,30.34,10.0,SSE,4.6,-,N/A,,Clear,150,2013-11-08 09:52:00
4:52 AM,35.1,32.0,89,30.32,10.0,SSE,9.2,-,N/A,,Clear,150,2013-11-08 10:52:00
5:52 AM,36.0,32.0,86,30.32,10.0,SE,9.2,-,N/A,,Clear,140,2013-11-08 11:52:00
6:52 AM,36.0,32.0,86,30.31,10.0,SSE,9.2,-,N/A,,Clear,150,2013-11-08 12:52:00
7:52 AM,39.9,35.1,83,30.32,10.0,SSE,12.7,-,N/A,,Clear,160,2013-11-08 13:52:00
8:52 AM,46.0,37.0,71,30.32,10.0,SSE,12.7,-,N/A,,Clear,160,2013-11-08 14:52:00
9:52 AM,51.1,37.0,59,30.30,10.0,SSE,15.0,-,N/A,,Clear,150,2013-11-08 15:52:00
10:52 AM,55.0,36.0,49,30.27,10.0,South,16.1,-,N/A,,Clear,170,2013-11-08 16:52:00
11:52 AM,59.0,37.9,46,30.23,10.0,South,17.3,23.0,N/A,,Clear,170,2013-11-08 17:52:00
12:52 PM,61.0,37.9,42,30.18,10.0,SSE,13.8,25.3,N/A,,Clear,160,2013-11-08 18:52:00
1:52 PM,62.1,39.0,43,30.14,10.0,South,16.1,-,N/A,,Clear,170,2013-11-08 19:52:00
2:52 PM,63.0,39.0,41,30.11,10.0,South,19.6,-,N/A,,Clear,170,2013-11-08 20:52:00
3:52 PM,63.0,34.0,34,30.09,10.0,South,18.4,27.6,N/A,,Clear,180,2013-11-08 21:52:00
4:52 PM,59.0,30.9,35,30.07,10.0,South,18.4,-,N/A,,Clear,180,2013-11-08 22:52:00
5:52 PM,55.9,30.9,39,30.06,10.0,South,17.3,-,N/A,,Clear,180,2013-11-08 23:52:00
6:52 PM,55.0,33.1,43,30.07,10.0,South,16.1,-,N/A,,Clear,170,2013-11-09 00:52:00
7:52 PM,53.1,34.0,48,30.07,10.0,South,12.7,-,N/A,,Clear,170,2013-11-09 01:52:00
8:52 PM,51.1,36.0,56,30.09,10.0,South,12.7,-,N/A,,Clear,170,2013-11-09 02:52:00
9:52 PM,48.9,37.0,64,30.09,10.0,South,13.8,-,N/A,,Clear,170,2013-11-09 03:52:00
10:52 PM,48.0,37.0,66,30.09,10.0,South,13.8,-,N/A,,Clear,170,2013-11-09 04:52:00
11:52 PM,46.9,37.9,71,30.10,10.0,South,11.5,-,N/A,,Scattered Clouds,170,2013-11-09 05:52:00